DW9945 Weather Reports


time (UTC)temp
C
wind
direction
speed
KPH
gust
KPH
rain 1hr
cm
rain 24hr
cm
rain mn
cm
humidity
%
barometer
mb
20260506041508 5 20 4.8 11.3 0.00 0.00 0.00 83 1012.9
20260506041007 5 15 4.8 8.0 0.00 0.00 0.00 83 1012.8
20260506040508 5 8 3.2 8.0 0.00 0.00 0.00 83 1012.9
20260506040008 5 352 4.8 8.0 0.00 0.00 0.00 83 1012.9
20260506035508 6 352 4.8 8.0 0.00 0.00 0.00 82 1012.9
20260506035007 6 5 4.8 8.0 0.00 0.00 0.00 82 1012.9
20260506034508 6 21 4.8 8.0 0.00 0.00 0.00 81 1013.0
20260506034008 6 11 4.8 4.8 0.00 0.00 0.00 81 1013.0
20260506033508 6 354 4.8 8.0 0.00 0.00 0.00 82 1013.1
20260506033008 6 24 3.2 4.8 0.00 0.00 0.00 82 1013.1
20260506032007 6 25 3.2 9.7 0.00 0.00 0.00 82 1013.3
20260506031508 6 349 6.4 9.7 0.00 0.00 0.00 81 1013.3
20260506031008 6 6 4.8 8.0 0.00 0.00 0.00 81 1013.2
20260506030507 6 355 6.4 11.3 0.00 0.00 0.00 81 1013.2
20260506030008 6 3 4.8 9.7 0.00 0.00 0.00 81 1013.3
20260506025508 6 1 6.4 11.3 0.00 0.00 0.00 81 1013.3
20260506025008 6 359 6.4 9.7 0.00 0.00 0.00 80 1013.2
20260506024508 6 358 4.8 9.7 0.00 0.00 0.00 79 1013.2
20260506024007 6 0 4.8 8.0 0.00 0.00 0.00 80 1013.2
20260506023008 6 10 4.8 4.8 0.00 0.00 0.00 80 1013.2
20260506022508 6 15 0.0 4.8 0.00 0.00 0.00 79 1013.2
20260506021508 7 4 4.8 8.0 0.00 0.00 0.00 78 1013.1
20260506021007 7 24 4.8 8.0 0.00 0.00 0.00 78 1013.2
20260506020507 7 27 3.2 9.7 0.00 0.00 0.00 78 1013.2
20260506020008 7 25 3.2 8.0 0.00 0.00 0.00 78 1013.1
20260506015007 7 16 4.8 11.3 0.00 0.00 0.00 78 1013.1
20260506014508 6 31 4.8 8.0 0.00 0.00 0.00 79 1013.2
20260506014008 6 32 4.8 4.8 0.00 0.00 0.00 79 1013.2
20260506013508 6 19 3.2 4.8 0.00 0.00 0.00 78 1013.1
20260506013008 7 18 1.6 4.8 0.00 0.00 0.00 78 1013.2
20260506012507 7 26 3.2 4.8 0.00 0.00 0.00 78 1013.3
20260506012007 7 14 1.6 4.8 0.00 0.00 0.00 79 1013.2
20260506011008 6 26 3.2 4.8 0.00 0.00 0.00 79 1013.2
20260506010509 6 15 3.2 4.8 0.00 0.00 0.00 79 1013.3
20260506005518 7 13 4.8 8.0 0.00 0.00 0.00 79 1013.3
20260506005018 7 27 3.2 4.8 0.00 0.00 0.00 78 1013.3
20260506004518 7 16 3.2 4.8 0.00 0.00 0.00 78 1013.3
20260506004018 7 8 1.6 4.8 0.00 0.00 0.00 77 1013.3
20260506003518 7 357 3.2 4.8 0.00 0.00 0.00 76 1013.3
20260506003019 7 34 3.2 4.8 0.00 0.00 0.00 76 1013.4
20260506002018 7 36 0.0 4.8 0.00 0.00 0.00 77 1013.5
20260506001519 7 23 0.0 4.8 0.00 0.00 0.00 77 1013.5
20260506001018 7 23 3.2 4.8 0.00 0.00 0.00 77 1013.6
20260506000522 7 16 3.2 4.8 0.00 0.00 0.00 76 1013.5
20260506000018 7 15 4.8 11.3 0.00 0.00 0.00 75 1013.5
20260505235520 7 11 3.2 4.8 0.00 0.00 0.00 74 1013.5
20260505235007 7 5 3.2 4.8 0.00 0.00 0.00 75 1013.5
20260505234519 7 15 0.0 4.8 0.00 0.00 0.00 75 1013.6
20260505234018 7 357 3.2 4.8 0.00 0.00 0.00 75 1013.7
20260505233518 7 8 3.2 8.0 0.00 0.00 0.00 75 1013.7
20260505232518 8 347 4.8 4.8 0.00 0.00 0.00 73 1013.6
20260505232018 8 5 0.0 0.0 0.00 0.00 0.00 73 1013.6
20260505231518 8 5 1.6 4.8 0.00 0.00 0.00 72 1013.5
20260505231018 8 4 3.2 4.8 0.00 0.00 0.00 70 1013.3
20260505230018 8 76 4.8 12.9 0.00 0.00 0.00 71 1013.4
20260505225518 8 61 4.8 11.3 0.00 0.00 0.00 71 1013.4
20260505225018 8 355 8.0 14.5 0.00 0.00 0.00 72 1013.3
20260505224518 8 357 9.7 12.9 0.00 0.00 0.00 71 1013.3
20260505223519 9 2 6.4 12.9 0.00 0.00 0.00 68 1013.3
20260505223018 10 47 6.4 12.9 0.00 0.00 0.00 66 1013.3
20260505222519 10 28 8.0 14.5 0.00 0.00 0.00 66 1013.2
20260505222007 10 29 9.7 19.3 0.00 0.00 0.00 66 1013.2
20260505221518 10 357 12.9 19.3 0.00 0.00 0.00 67 1013.2
20260505221018 10 1 12.9 25.7 0.00 0.00 0.00 65 1013.2
20260505220519 10 358 16.1 22.5 0.00 0.00 0.00 64 1013.2
20260505220018 10 352 19.3 25.7 0.00 0.00 0.00 63 1013.2
20260505215019 10 342 14.5 19.3 0.00 0.00 0.00 61 1013.1
20260505214519 10 343 11.3 19.3 0.00 0.00 0.00 60 1013.2
20260505214018 10 338 12.9 14.5 0.00 0.00 0.00 59 1013.2
20260505213519 10 326 9.7 12.9 0.00 0.00 0.00 60 1013.2
20260505213018 10 329 6.4 9.7 0.00 0.00 0.00 63 1013.1
20260505212018 10 333 8.0 12.9 0.00 0.00 0.00 60 1013.0
20260505211518 10 340 8.0 8.0 0.00 0.00 0.00 61 1013.1
20260505211018 10 345 8.0 8.0 0.00 0.00 0.00 62 1013.1
20260505210508 10 336 4.8 8.0 0.00 0.00 0.00 61 1013.0
20260505210018 10 346 8.0 8.0 0.00 0.00 0.00 60 1013.1
20260505205518 10 357 3.2 4.8 0.00 0.00 0.00 60 1013.1
20260505205018 10 359 3.2 8.0 0.00 0.00 0.00 60 1013.1
20260505204518 10 15 6.4 8.0 0.00 0.00 0.00 59 1013.1
20260505204018 11 3 4.8 4.8 0.00 0.00 0.00 57 1013.0
20260505203518 11 13 4.8 8.0 0.00 0.00 0.00 57 1013.1
20260505203018 11 8 3.2 8.0 0.00 0.00 0.00 57 1012.9
20260505202518 11 318 8.0 9.7 0.00 0.00 0.00 54 1012.8
20260505201518 12 321 12.9 16.1 0.00 0.00 0.00 50 1012.8
20260505201019 12 322 14.5 16.1 0.00 0.00 0.00 51 1012.8
20260505200018 12 338 9.7 12.9 0.00 0.00 0.00 50 1012.7
20260505195518 12 326 9.7 12.9 0.00 0.00 0.00 48 1012.5
20260505195018 12 332 9.7 14.5 0.00 0.00 0.00 49 1012.5
20260505194018 12 317 8.0 12.9 0.00 0.00 0.00 50 1012.2
20260505193518 12 336 9.7 14.5 0.00 0.00 0.00 49 1012.1
20260505193018 13 329 11.3 14.5 0.00 0.00 0.00 48 1012.3
20260505192518 13 325 12.9 14.5 0.00 0.00 0.00 46 1012.2
20260505192017 13 324 12.9 14.5 0.00 0.00 0.00 45 1012.1
20260505191518 13 319 12.9 16.1 0.00 0.00 0.00 44 1012.1
20260505190519 14 317 11.3 14.5 0.00 0.00 0.00 42 1012.0
20260505190018 14 318 11.3 14.5 0.00 0.00 0.00 41 1011.9
20260505184508 15 311 14.5 22.5 0.00 0.00 0.00 38 1011.7
20260505183519 15 310 17.7 27.4 0.00 0.00 0.00 37 1011.7
20260505183018 16 301 16.1 24.1 0.00 0.00 0.00 37 1011.7
20260505182518 16 291 16.1 24.1 0.00 0.00 0.00 36 1011.6
20260505182017 16 292 14.5 27.4 0.00 0.00 0.00 36 1011.6
20260505181518 16 328 14.5 24.1 0.00 0.00 0.00 38 1011.6
20260505180518 16 319 14.5 27.4 0.00 0.00 0.00 37 1011.6
20260505180018 16 310 20.9 27.4 0.00 0.00 0.00 36 1011.5
20260505175518 16 301 14.5 20.9 0.00 0.00 0.00 36 1011.5
20260505175007 16 319 19.3 27.4 0.00 0.00 0.00 35 1011.5
20260505174007 16 308 17.7 27.4 0.00 0.00 0.00 36 1011.5
20260505172517 16 290 16.1 25.7 0.00 0.00 0.00 33 1011.5
20260505171507 16 295 14.5 24.1 0.00 0.00 0.00 34 1011.4
20260505171018 17 310 19.3 25.7 0.00 0.00 0.00 34 1011.4
20260505170518 16 297 16.1 27.4 0.00 0.00 0.00 34 1011.4
20260505170019 17 289 20.9 32.2 0.00 0.00 0.00 33 1011.3
20260505165518 17 300 19.3 25.7 0.00 0.00 0.00 32 1011.3
20260505165018 17 288 17.7 25.7 0.00 0.00 0.00 32 1011.3
20260505164519 17 303 20.9 27.4 0.00 0.00 0.00 32 1011.3
20260505164020 17 287 20.9 27.4 0.00 0.00 0.00 32 1011.3
20260505163018 17 317 14.5 20.9 0.00 0.00 0.00 33 1011.3
20260505162517 17 292 14.5 24.1 0.00 0.00 0.00 30 1011.3
20260505162017 17 288 16.1 25.7 0.00 0.00 0.00 32 1011.4
20260505161517 17 291 19.3 32.2 0.00 0.00 0.00 33 1011.3
20260505153017 17 303 19.3 29.0 0.00 0.00 0.00 33 1011.2
20260505152517 17 286 16.1 25.7 0.00 0.00 0.00 35 1011.3
20260505152018 17 278 14.5 24.1 0.00 0.00 0.00 33 1011.3
20260505151518 17 282 16.1 29.0 0.00 0.00 0.00 32 1011.4
20260505151018 17 280 11.3 32.2 0.00 0.00 0.00 34 1011.4
20260505150518 17 297 22.5 32.2 0.00 0.00 0.00 34 1011.4
20260505140518 17 260 9.7 25.7 0.00 0.00 0.00 35 1011.7
20260505125017 16 297 11.3 24.1 0.00 0.00 0.00 42 1012.3
20260505124506 16 287 14.5 24.1 0.00 0.00 0.00 40 1012.2
20260505124017 17 268 9.7 22.5 0.00 0.00 0.00 37 1012.2
20260505123506 17 224 12.9 19.3 0.00 0.00 0.00 38 1012.3
20260505122506 17 287 11.3 24.1 0.00 0.00 0.00 40 1012.3
20260505122017 16 279 4.8 19.3 0.00 0.00 0.00 42 1012.2
20260505121517 16 303 16.1 20.9 0.00 0.00 0.00 45 1012.4
20260505120517 16 240 9.7 20.9 0.00 0.00 0.00 40 1012.4
20260505120018 16 245 11.3 24.1 0.00 0.00 0.00 40 1012.5
20260505114517 16 253 14.5 22.5 0.00 0.00 0.00 41 1012.5
20260505114017 16 259 9.7 19.3 0.00 0.00 0.00 43 1012.5
20260505113518 16 233 14.5 20.9 0.00 0.00 0.00 42 1012.5
20260505113018 16 282 8.0 20.9 0.00 0.00 0.00 44 1012.6
20260505112517 16 229 8.0 22.5 0.00 0.00 0.00 44 1012.7
20260505112017 15 235 11.3 19.3 0.00 0.00 0.00 44 1012.8
20260505111518 15 228 12.9 20.9 0.00 0.00 0.00 44 1012.7
20260505111017 16 296 14.5 19.3 0.00 0.00 0.00 43 1012.7
20260505110517 16 199 11.3 19.3 0.00 0.00 0.00 43 1012.7
20260505102019 15 204 8.0 19.3 0.00 0.00 0.00 50 1013.2
20260505101519 15 193 11.3 22.5 0.00 0.00 0.00 50 1013.2
20260505101019 15 202 4.8 19.3 0.00 0.00 0.00 48 1013.1
20260505100519 15 233 8.0 14.5 0.00 0.00 0.00 47 1013.2
20260505100019 15 202 6.4 11.3 0.00 0.00 0.00 49 1013.1
20260505095519 14 87 6.4 14.5 0.00 0.00 0.00 49 1013.1
20260505095008 14 18 1.6 4.8 0.00 0.00 0.00 50 1013.0
20260505094519 14 296 4.8 9.7 0.00 0.00 0.00 51 1013.0
20260505094019 14 290 4.8 9.7 0.00 0.00 0.00 50 1013.0
20260505093508 14 266 4.8 12.9 0.00 0.00 0.00 50 1013.1
20260505093019 14 173 3.2 9.7 0.00 0.00 0.00 52 1013.0
20260505092519 14 67 4.8 9.7 0.00 0.00 0.00 53 1013.1
20260505092019 14 169 4.8 11.3 0.00 0.00 0.00 54 1013.1
20260505091519 14 156 3.2 9.7 0.00 0.00 0.00 55 1013.1
20260505091019 13 194 6.4 11.3 0.00 0.00 0.00 55 1013.1
20260505090519 13 210 3.2 4.8 0.00 0.00 0.00 55 1013.2
20260505090018 13 152 3.2 8.0 0.00 0.00 0.00 55 1013.2
20260505085519 13 63 4.8 9.7 0.00 0.00 0.00 55 1013.2
20260505085018 13 133 4.8 11.3 0.00 0.00 0.00 56 1013.2
20260505084519 13 180 1.6 9.7 0.00 0.00 0.00 57 1013.3
20260505084019 13 83 3.2 4.8 0.00 0.00 0.00 59 1013.3
20260505083519 12 74 4.8 8.0 0.00 0.00 0.00 59 1013.3
20260505082019 12 31 4.8 8.0 0.00 0.00 0.00 61 1013.5
20260505081519 12 112 1.6 9.7 0.00 0.00 0.00 61 1013.4
20260505081019 12 45 3.2 8.0 0.00 0.00 0.00 62 1013.3
20260505080019 12 70 4.8 12.9 0.00 0.00 0.00 62 1013.4
20260505075519 12 149 3.2 12.9 0.00 0.00 0.00 64 1013.4
20260505074519 11 178 1.6 9.7 0.00 0.00 0.00 67 1013.3
20260505074019 11 86 3.2 4.8 0.00 0.00 0.00 67 1013.3
20260505073519 11 71 4.8 9.7 0.00 0.00 0.00 67 1013.3
20260505073018 11 113 4.8 11.3 0.00 0.00 0.00 67 1013.3
20260505072018 11 104 1.6 4.8 0.00 0.00 0.00 69 1013.3
20260505071519 11 158 0.0 0.0 0.00 0.00 0.00 72 1013.2
20260505071018 10 158 0.0 0.0 0.00 0.00 0.00 72 1013.2
20260505070519 10 158 0.0 0.0 0.00 0.00 0.00 73 1013.1
20260505070019 10 158 0.0 0.0 0.00 0.00 0.00 78 1013.2
20260505065519 10 158 0.0 0.0 0.00 0.00 0.00 83 1013.2
20260505065019 10 158 0.0 0.0 0.00 0.00 0.00 84 1013.3
20260505064508 10 158 0.0 0.0 0.00 0.00 0.00 83 1013.2
20260505064019 10 158 0.0 0.0 0.00 0.00 0.00 82 1013.1
20260505063519 9 158 0.0 0.0 0.00 0.00 0.00 82 1013.1
20260505063019 9 158 0.0 0.0 0.00 0.00 0.00 84 1013.1
20260505062519 9 158 0.0 0.0 0.00 0.00 0.00 83 1013.1
20260505062019 9 158 0.0 0.0 0.00 0.00 0.00 82 1013.1
20260505061519 8 158 0.0 0.0 0.00 0.00 0.00 82 1013.1
20260505061018 8 158 0.0 0.0 0.00 0.00 0.00 83 1013.1
20260505060019 8 158 0.0 0.0 0.00 0.00 0.00 83 1013.1
20260505055519 8 158 0.0 0.0 0.00 0.00 0.00 82 1012.9
20260505054519 8 158 0.0 0.0 0.00 0.00 0.00 82 1012.9
20260505053519 8 158 0.0 0.0 0.00 0.00 0.00 81 1012.9
20260505052518 8 158 0.0 0.0 0.00 0.00 0.00 81 1012.8
20260505052018 8 158 0.0 0.0 0.00 0.00 0.00 80 1012.8
20260505051508 9 158 0.0 0.0 0.00 0.00 0.00 79 1012.8
20260505051019 9 158 0.0 0.0 0.00 0.00 0.00 78 1012.8